#timestamp,LO_Frequency,Hit,StdDev 
1701748815.4,286047002.8,N
1701748835.2,286047002.0,N
1701748855.1,286047003.9,N
1701748856.0,286047003.9,N
1701748875.8,286047001.6,N
1701748895.7,286047001.9,N
1701748915.5,286047001.3,N
1701748935.3,286047002.1,N
1701748955.2,286047000.2,N
1701748975.0,286047002.3,N
1701748975.9,286047002.3,N
1701748995.8,286047002.2,N
1701749015.6,286046999.9,N
1701749035.4,286047000.6,N
1701749055.3,286046999.9,N
1701749075.1,286047002.8,N
1701749095.9,286047002.3,N
1701749115.7,286047001.6,N
1701749135.5,286047000.5,N
1701749155.4,286047001.1,N
1701749175.2,286046999.7,N
1701749195.0,286047000.5,N
1701749195.9,286047000.5,N
1701749215.8,286047000.3,N
1701749235.6,286047000.1,N
1701749255.5,286047000.0,N
1701749275.3,286047000.9,N
1701749295.1,286046998.2,N
1701749315.9,286046998.8,N
1701749335.7,286046998.7,N
1701749355.5,286046998.7,N
1701749375.4,286046998.4,N
1701749395.2,286046999.1,N
1701749415.1,286046998.9,N
1701749416.0,286046998.9,N
1701749435.8,286046998.3,N
1701749455.6,286047001.2,N
1701749475.5,286047000.5,N
1701749495.3,286047000.9,N
1701749515.1,286047000.5,N
1701749535.9,286047002.3,N
1701749555.7,286047000.3,N
1701749575.6,286047000.3,N
1701749595.4,286047000.6,N
1701749615.2,286047002.4,N
1701749635.1,286047002.7,N
1701749636.0,286047002.7,N
1701749655.8,286047001.1,N
1701749675.6,286047000.5,N
1701749695.5,286047000.7,N
1701749715.3,286047000.4,N
1701749735.2,286047000.5,N
1701749755.9,286047002.2,N
1701749775.7,286047001.9,N
1701749795.6,286047001.3,N
1701749815.4,286047001.7,N
1701749835.3,286047001.3,N
1701749855.1,286047001.4,N
1701749875.8,286047001.5,N
1701749895.7,286047001.9,N
1701749915.5,286047002.7,N
1701749935.4,286047001.6,N
1701749955.2,286047002.7,N
1701749975.0,286047002.3,N
1701749975.9,286047002.3,N
1701749995.8,286047000.1,N
1701750015.6,286047002.3,N
1701750035.4,286047001.9,N
1701750055.3,286047002.4,N
1701750075.1,286046999.8,N
1701750095.9,286046999.9,N
1701750115.7,286047002.1,N
1701750135.5,286047001.9,N
1701750155.4,286047002.1,N
1701750175.2,286047000.1,N
1701750195.0,286046999.8,N
1701750195.9,286046999.8,N
1701750215.8,286047000.4,N
1701750235.6,286047002.3,N
1701750255.5,286047002.7,N
1701750275.3,286047002.4,N
1701750295.1,286047002.6,N
1701750315.9,286047002.8,N
1701750335.7,286047001.8,N
1701750355.5,286047001.4,N
1701750375.4,286047002.2,N
1701750395.2,286047002.8,N
1701750415.1,286047002.4,N
1701750416.0,286047002.4,N
1701750435.8,286047002.2,N
1701750455.6,286047002.6,N
1701750505.5,286046999.7,E
1701750515.4,286046999.8,N
1701750535.2,286047002.6,P
1701750555.1,286047002.8,N
1701750556.0,286047002.8,N
1701750575.8,286047002.5,N
1701750595.7,286047001.9,N
1701750615.5,286047001.7,N
1701750635.4,286047002.1,N
1701750655.2,286047004.2,Y
1701750675.0,286047000.8,P
1701750675.9,286047000.8,N
1701750695.8,286046998.7,N
1701750715.6,286047001.0,N
1701750735.5,286046998.2,N
1701750755.3,286046998.3,N
1701750775.1,286046998.4,N
1701750795.9,286046998.6,N
1701750815.7,286046996.6,N
1701750835.6,286046996.8,N
1701750855.4,286046999.6,N
1701750875.2,286046999.1,N
1701750895.1,286046998.5,N
1701750896.0,286046998.5,N
1701750915.8,286046998.6,N
1701750935.6,286047000.9,N
1701750955.5,286047000.4,N
1701750975.3,286047000.3,N
1701750995.2,286047000.7,N
1701751015.9,286046999.7,N
1701751035.7,286047000.7,N
1701751055.6,286047000.1,N
1701751075.4,286046999.8,N
1701751095.2,286047001.2,N
1701751115.1,286047000.1,N
1701751116.0,286047000.1,N
1701751135.8,286047002.7,N
1701751155.7,286046999.8,N
1701751175.5,286047002.0,N
1701751195.3,286047002.7,N
1701751215.2,286046998.6,N
1701751235.0,286046998.8,N
1701751235.9,286046998.8,N
1701751255.8,286046998.7,N
1701751275.6,286046998.1,N
1701751295.4,286047001.2,N
1701751315.3,286046999.5,N
1701751335.1,286046999.5,N
1701751355.9,286046998.3,N
1701751375.7,286047001.0,N
1701751395.5,286046999.9,N
1701751415.4,286047001.1,N
1701751435.2,286047001.1,N
1701751455.0,286047002.4,N
1701751455.9,286047002.4,N
1701751475.8,286047002.3,N
1701751495.6,286047000.0,N
1701751515.5,286047002.4,N
1701751535.3,286046999.7,N
1701751555.1,286047000.2,N
1701751575.9,286047000.2,N
1701751595.7,286047000.8,N
1701751615.5,286046998.2,N
1701751635.4,286046998.6,N
1701751655.2,286046999.3,N
1701751675.1,286046999.4,N
1701751676.0,286046999.4,N
1701751695.8,286046998.4,N
1701751715.6,286046998.7,N
1701751735.5,286046998.8,N
1701751755.3,286046998.5,N
1701751775.1,286046998.7,N
1701751795.9,286046999.0,N
1701751815.7,286046998.5,N
1701751835.6,286047001.2,N
1701751855.4,286046998.1,N
1701751875.2,286046998.4,N
1701751895.1,286046998.9,N
1701751896.0,286046998.9,N
1701751915.8,286046998.7,N
1701751935.7,286047000.8,N
1701751955.5,286046998.1,N
1701751975.3,286046998.7,N
1701751995.2,286046998.7,N
1701752015.0,286046996.6,N
1701752015.9,286046996.6,N
1701752035.8,286046996.5,N
1701752055.6,286046997.4,N
1701752075.4,286046995.0,Y
1701752095.3,286046996.6,P
1701752115.1,286046999.6,N
1701752135.8,286046998.1,N
1701752155.7,286046998.4,N
1701752175.5,286046999.5,N
1701752195.4,286046997.1,N
1701752215.2,286046998.8,N
1701752235.0,286046998.8,N
1701752235.9,286046998.8,N
1701752255.8,286046998.9,N
1701752275.6,286046998.7,N
1701752295.4,286047000.8,N
1701752315.3,286047000.3,N
1701752335.1,286047002.3,N
1701752355.9,286047011.9,Y
1701752375.7,286047003.8,P
1701752395.5,286047003.8,N
